Volver al catálogo

STARLINK-11563

ActivoComunicacionesVLEO
NORAD 63053·PAYLOAD·🇺🇸 United States

Lanzado Feb 21, 2025 desde Cape Canaveral Space Force Station

Loading…

Próximos Pases (próximas 24 horas)

TLE

ActualizadoSource: CelesTrak SupGP

Época: Sep 15, 2026, 03:04 UTC

1 63053C 25035B   26258.12826389  .00050949  00000+0  39581-3 0  2587
2 63053  43.0001 313.3271 0001592 247.9448 205.8846 15.70807945    12

Sigue STARLINK-11563 en tiempo real con AllMySat

Download on the App Store